OBJECT A, 67746

Orbit data source: Space-Track

You're viewing an Uncataloged Satellite

Recently launched and/or uncataloged satellites may have evolving metadata. Metadata may include but not limited to: Owner, Maufacturer, Bus, Motor, and Mission.

OBJECT A, 67746 is a Chinese satellite in SSO that was launched on Thu, 12 Feb 2026 UTC via a JIELONG-3 launch vehicle from the South China Sea Launch Area (SCSLA). Unknown objects in Earth's orbit typically refer to objects detected orbiting the Earth but have not yet been identified or cataloged. These objects could be anything from previously untracked satellites, spent rocket stages, debris from satellite collisions, or even natural meteoroids temporarily captured by Earth's gravity.

Loading next visibility...
Identifier
67746, 2026-027A
Orbit
SSO
Country
Flag of CNCN / PRC
Related business
None
Manufacturer
Unknown
Mission
Operational Civil Imaging
Bus & Motor
Unknown
Mass
Unknown
Launch date (UTC)
2026-02-12 (4 months ago)
Launch vehicle
JIELONG-3
Launch site
South China Sea Launch Area (SCSLA)
Object type
Unknown
Shape & HBR
Box + 2 Pan, 1.5 m
Radar Cross Section
6.755 m², Medium (>0.1 m² and < 1m²)

Expand to show TLE details & history
Last TLE update: 6 hours ago

TLE from 6 hours ago
0 OBJECT A
1 67746U 26027A   26164.84864943  .00006950  00000-0  33413-3 0  9999
2 67746  97.5058 293.0518 0009091 220.0889 139.9676 15.19092883 18457
Epoch: 2026-06-13T20:22Z
TLE epoch observation values (Epoch: 2026-06-13T20:22:03.310Z)
Latitude
0.00002°
Longitude
85.38016°
Altitude
516.464 km
Speed
7.603 km/s
True Right ascension
19h 32m 12s
True Declination
0° 00' 00"
Sunlit
Object was in full shadow at epoch
Visualization orbit readout
Latitude
Unknown
Longitude
Unknown
Altitude
Unknown
Speed
Unknown
Apparent Right ascension
Unknown
Apparent Declination
Unknown
Sunlit
N/A
Visualization observer readout
Local Sidereal Time
12:59:19
Azimuth
Unknown
Elevation
Unknown
Doppler factor
Unknown
Orbital elements
Apogee altitude
511.81 km
Perigee altitude
499.294 km
Semi-major axis
6,883.689 km
Eccentricity
0.00091
Inclination
97.5058°
RAAN
293.0518°
Arg. of periapsis
220.0889°
True anomaly
140.03455°
Mean anomaly
139.9676°
Eccentric anomaly
140.00108°
Mean motion
3.80024 °/min
Orbital period
94.73 mins
BSTAR
0.00033413
Loading maneuver chart data...
Computing Atmospheric mass density...
Loading historical data...
Loading historical data...
Loading historical data...
Loading historical data...
Loading historical data...
Loading historical data...
Loading historical data...

Documentation

Showing up to 5 results
|